Home   Weather   Helsinki   Past weeks

Flag for Finland Past Weather in Helsinki, Finland — Yesterday and Last 2 Weeks

Now
54 °F

Passing clouds.


Feels Like: 51 °F
Forecast: 51 / 58 °F
Wind: 8 mph from Southwest

Location: Helsinki Malmi Airport

Current Time: Oct 1, 2016 at 1:05:01 AM

Latest Report: Oct 1, 2016 at 12:20 AM


Visibility: N/A

Pressure: 29.47 "Hg

Humidity: 72%

Dew Point: 45 °F

Location of HelsinkiLocation

Past Weather in Helsinki — Graph

°F

Helsinki Temperature Yesterday

Maximum temperature yesterday: 61 °F (at 12:20 AM)
Minimum temperature yesterday: 52 °F (at 9:50 PM)
Average temperature yesterday: 57 °F

High & Low Weather Summary for the Past Weeks

 TemperatureHumidityPressure
High61 °F (Sep 20, 2:20 PM)100% (Sep 16, 7:20 AM)30.33 "Hg (Sep 16, 7:20 AM)
Low36 °F (Sep 19, 3:50 AM)52% (Sep 20, 2:20 PM)29.12 "Hg (Sep 30, 5:50 AM)
Average51 °F82%30.02 "Hg
* Reported Sep 15 11:20 PM — Sep 30 11:50 PM, Helsinki, Weather by CustomWeather, © 2016

Note: Actual official high and low records may vary slightly from our data, if they occured in-between our weather recording intervals... More about our weather records

Advertising

Helsinki Weather History for the Previous 24 Hours

Scroll right to see more
 ConditionsComfort  
Time TempWeatherWind HumidityBarometerVisibility
11:50 PM
Fri, Sep 30
54 °FPassing clouds.9 mph72%29.47 "HgN/A
11:20 PM54 °FPassing clouds.8 mph72%29.45 "HgN/A
10:50 PM54 °FPassing clouds.7 mph72%29.45 "HgN/A
10:20 PM54 °FPassing clouds.7 mph72%29.45 "HgN/A
9:50 PM52 °FPassing clouds.7 mph77%29.45 "HgN/A
9:20 PM54 °FPassing clouds.9 mph72%29.45 "HgN/A
8:50 PM54 °FPassing clouds.8 mph67%29.45 "HgN/A
8:20 PM54 °FPassing clouds.9 mph67%29.45 "HgN/A
7:50 PM54 °FPassing clouds.9 mph67%29.42 "HgN/A
7:20 PM54 °FPassing clouds.8 mph67%29.42 "HgN/A
6:50 PM55 °FPassing clouds.9 mph63%29.42 "HgN/A
6:20 PM55 °FPassing clouds.13 mph63%29.39 "HgN/A
5:50 PM57 °FPassing clouds.14 mph59%29.39 "HgN/A
5:20 PM57 °FPassing clouds.10 mph63%29.36 "HgN/A
4:50 PM57 °FPassing clouds.14 mph59%29.36 "HgN/A
4:20 PM57 °FPassing clouds.16 mph59%29.33 "HgN/A
3:50 PM59 °FScattered clouds.18 mph55%29.33 "HgN/A
3:20 PM59 °FScattered clouds.17 mph55%29.30 "HgN/A
2:50 PM59 °FScattered clouds.15 mph55%29.30 "HgN/A
2:20 PM61 °FScattered clouds.16 mph52%29.27 "HgN/A
1:50 PM59 °FScattered clouds.17 mph59%29.24 "HgN/A
1:20 PM59 °FScattered clouds.17 mph59%29.24 "HgN/A
12:50 PM59 °FScattered clouds.16 mph59%29.21 "HgN/A
12:20 PM57 °FPartly sunny.17 mph67%29.21 "HgN/A
11:50 AM57 °FPartly sunny.14 mph63%29.18 "HgN/A
11:20 AM57 °FPartly sunny.15 mph67%29.18 "HgN/A
10:50 AM57 °FPartly sunny.14 mph67%29.15 "HgN/A
10:20 AM57 °FBroken clouds.13 mph72%29.15 "HgN/A
9:50 AM54 °FSprinkles. Broken clouds.13 mph82%29.15 "HgN/A
9:20 AM57 °FScattered showers. Broken clouds.16 mph67%29.12 "HgN/A
8:50 AM55 °FScattered showers. Broken clouds.14 mph77%29.12 "HgN/A
8:20 AM55 °FScattered showers. Partly sunny.10 mph77%29.12 "HgN/A
7:50 AM57 °FBroken clouds.15 mph67%29.12 "HgN/A
7:20 AM55 °FPassing clouds.14 mph72%29.12 "HgN/A
6:50 AM55 °FPassing clouds.12 mph77%29.12 "HgN/A
6:20 AM57 °FPassing clouds.14 mph72%29.12 "HgN/A
5:50 AM57 °FPassing clouds.14 mph77%29.12 "HgN/A
5:20 AM55 °FSprinkles. Passing clouds.14 mph77%29.15 "HgN/A
4:50 AM57 °FPassing clouds.12 mph72%29.15 "HgN/A
4:20 AM57 °FPassing clouds.16 mph72%29.18 "HgN/A
3:50 AM57 °FPassing clouds.13 mph77%29.18 "HgN/A
3:20 AM57 °FPassing clouds.13 mph77%29.18 "HgN/A
2:50 AM57 °FPassing clouds.15 mph77%29.18 "HgN/A
2:20 AM57 °FPassing clouds.13 mph82%29.18 "HgN/A
1:50 AM59 °FPassing clouds.14 mph82%29.21 "HgN/A
1:20 AM59 °FPassing clouds.15 mph82%29.21 "HgN/A
Weather by CustomWeather, © 2016

See weather overviewHow to use our weather pages